Weather History for Valparaiso, FL

Change the Weather History Date:

Saturday, October 22, 2011

  Actual Average Record
Temperature  
Mean Temperature 58 °F -  
Max Temperature 72 °F 79 °F 89 °F (2003)
Min Temperature 43 °F 51 °F 32 °F (1989)
Degree Days  
Heating Degree Days 8    
Growing Degree Days 8 (Base 50)    
Moisture  
Dew Point 37 °F    
Average Humidity 51    
Maximum Humidity 73    
Minimum Humidity 28    
Precipitation  
Precipitation 0.00 in - - ()
Sea Level Pressure  
Sea Level Pressure 30.12 in    
Wind  
Wind Speed 6 mph (North)    
Max Wind Speed 13 mph    
Max Gust Speed 17 mph    
Visibility 10 miles    
Events      
Averages and records for this station are not official NWS values.
T = Trace of Precipitation, MM = Missing Value Source: NWS Daily Summary

Daily Weather History Graph

Daily Weather History Graph

Search for Another Location

Airport:

Trip Planner

Search our weather history database for the weather conditions in past years. The results will help you decide how hot, cold, wet, or windy it might be!

Date:

Astronomy

Oct. 22, 2011 Rise Set
Actual Time 6:52 AM CDT 6:07 PM CDT
Civil Twilight 6:28 AM CDT 6:32 PM CDT
Nautical Twilight 6:00 AM CDT 7:00 PM CDT
Astronomical Twilight 5:32 AM CDT 7:28 PM CDT
Moon 2:09 AM CDT (10/22) 3:08 PM CDT (10/22)
Length of Visible Light 12h 03m
Length of Day
11h 14m
Waning Crescent, 23% of the Moon is Illuminated
Oct 22
Waning Crescent
Oct 26
New
Nov 2
First Quarter
Nov 10
Full
Nov 18
Last Quarter

Hourly Weather History & Observations

Time (CDT) Temp. Windchill Dew Point Humidity Pressure Visibility Wind Dir Wind Speed Gust Speed Precip Events Conditions
12:55 AM 44.6 °F 42.2 °F 34.3 °F 67% 30.14 in 10.0 mi North 4.6 mph - N/A   Clear
1:59 AM 45.9 °F 43.6 °F 34.9 °F 66% 30.14 in 10.0 mi North 4.6 mph - N/A   Clear
2:59 AM 44.4 °F 42.0 °F 34.9 °F 69% 30.13 in 10.0 mi North 4.6 mph - N/A   Clear
3:56 AM 43.9 °F 42.3 °F 34.5 °F 70% 30.13 in 10.0 mi North 3.5 mph - N/A   Clear
4:59 AM 43.0 °F 40.3 °F 34.3 °F 72% 30.14 in 10.0 mi Variable 4.6 mph - N/A   Clear
5:59 AM 43.5 °F 39.4 °F 34.9 °F 72% 30.16 in 10.0 mi North 6.9 mph - N/A   Clear
6:55 AM 43.2 °F 39.0 °F 34.9 °F 73% 30.17 in 10.0 mi North 6.9 mph - N/A   Clear
7:59 AM 48.2 °F - 36.3 °F 63% 30.18 in 10.0 mi NNE 6.9 mph - N/A   Clear
8:55 AM 54.5 °F - 37.8 °F 53% 30.19 in 10.0 mi NNE 8.1 mph - N/A   Clear
9:55 AM 61.3 °F - 38.7 °F 43% 30.19 in 10.0 mi NNE 6.9 mph - N/A   Clear
10:55 AM 64.4 °F - 37.4 °F 37% 30.18 in 10.0 mi NE 10.4 mph - N/A   Clear
11:55 AM 67.3 °F - 36.9 °F 33% 30.15 in 10.0 mi NNE 11.5 mph - N/A   Clear
12:55 PM 68.7 °F - 37.4 °F 32% 30.12 in 10.0 mi NE 12.7 mph - N/A   Clear
1:55 PM 70.9 °F - 36.5 °F 28% 30.09 in 10.0 mi NNE 11.5 mph - N/A   Clear
2:55 PM 70.7 °F - 36.9 °F 29% 30.07 in 10.0 mi NNE 4.6 mph - N/A   Clear
3:55 PM 72.0 °F - 37.4 °F 28% 30.07 in 10.0 mi North 11.5 mph 17.3 mph N/A   Clear
4:55 PM 71.4 °F - 37.0 °F 29% 30.07 in 10.0 mi NNE 6.9 mph - N/A   Clear
5:55 PM 68.0 °F - 38.7 °F 34% 30.07 in 10.0 mi NNW 4.6 mph - N/A   Clear
6:55 PM 61.5 °F - 39.4 °F 44% 30.08 in 10.0 mi NNW 3.5 mph - N/A   Clear
7:55 PM 58.1 °F - 39.2 °F 49% 30.09 in 10.0 mi NNW 2.3 mph - N/A   Clear
8:55 PM 55.4 °F - 39.7 °F 56% 30.10 in 10.0 mi NNW 2.3 mph - N/A   Partly Cloudy
9:55 PM 52.2 °F - 39.2 °F 61% 30.10 in 10.0 mi North 2.3 mph - N/A   Clear
10:55 PM 51.6 °F - 38.7 °F 61% 30.09 in 10.0 mi NNE 3.5 mph - N/A   Partly Cloudy
11:55 PM 49.1 °F - 37.8 °F 65% 30.09 in 10.0 mi NNW 3.5 mph - N/A   Clear